Regional Weather Roundup
Issued by NWS

Home | Current Version | Previous Version | Graphics & Text | Print | Product List | Glossary On
Versions: 1 2 3 4 5 6 7 8 9 10 11 12 13 14 15 16 17 18 19 20 21 22 23 24 25 26 27 28 29 30 31 32 33 34 35 36 37 38 39 40 41 42 43 44 45 46 47 48 49 50
000
ASUS43 KLOT 230608
RWRIL

ILLINOIS REGIONAL WEATHER ROUNDUP
NATIONAL WEATHER SERVICE CHICAGO/ROMEOVILLE IL
100 AM CDT SAT JUL 23 2016

NOTE: "FAIR" INDICATES FEW OR NO CLOUDS BELOW 12,000 FEET WITH NO
SIGNIFICANT WEATHER AND/OR OBSTRUCTIONS TO VISIBILITY.

* THESE STATIONS ARE NOT UNDER NWS QUALITY CONTROL. THEY ALSO MAY NOT
  REPORT WEATHER SUCH AS PRECIPITATION OR FOG.

ILZ001-002-007-009-015-016-024-230700-
NORTHWEST ILLINOIS

CITY           SKY/WX    TMP DP  RH WIND       PRES   REMARKS
MOLINE         PTCLDY    78  75  90 SE6       29.98F HX  81
6HR MIN TEMP:  78; 6HR MAX TEMP:  87;

STERLING*      CLOUDY    76  76 100 CALM      30.01S
SAVANNA*       PTCLDY    76  75  96 CALM      29.99F
$$

ILZ003-004-008-010-011-017-018-230700-
NORTH CENTRAL ILLINOIS

CITY           SKY/WX    TMP DP  RH WIND       PRES   REMARKS
ROCKFORD       CLEAR     78  75  90 CALM      30.02R HX  81
6HR MIN TEMP:  77; 6HR MAX TEMP:  88;

FREEPORT*      CLEAR     73  72  95 CALM      30.03R
ROCHELLE*      PTCLDY    73  73  99 CALM      30.02S FOG
DE KALB*       CLOUDY    79  75  90 SW3       30.02S HX  82
$$

ILZ005-006-012>014-019>023-230700-
NORTHEAST ILLINOIS

CITY           SKY/WX    TMP DP  RH WIND       PRES   REMARKS
CHICAGO-OHARE  MOCLDY    81  76  84 VRB3      29.99R HX  87
6HR MIN TEMP:  80; 6HR MAX TEMP:  88;

CHICAGO-MIDWAY CLOUDY    83  75  77 W8        29.99S HX  90
6HR MIN TEMP:  83; 6HR MAX TEMP:  89;

AURORA         CLOUDY    78  76  93 W5        30.01S HX  81
6HR MIN TEMP:  78; 6HR MAX TEMP:  87;

LANSING*       MOCLDY    78  73  86 SW5       30.00S HX  80
JOLIET*        CLOUDY    78  77  96 CALM      30.00S HX  81
WAUKEGAN       PTCLDY    77  74  90 CALM      29.99S
6HR MIN TEMP:  75; 6HR MAX TEMP:  84;

DUPAGE AIRPORT CLOUDY    79  75  87 SW3       30.00S HX  83
6HR MIN TEMP:  78; 6HR MAX TEMP:  87;

WHEELING       CLEAR     82  75  79 W3        30.00R HX  89
6HR MIN TEMP:  80; 6HR MAX TEMP:  89;

MORRIS*        MOCLDY    77  75  94 CALM      29.99S
ROMEOVILLE*    PTCLDY    77  73  87 SW5       30.01S
NORTHERLY ISL    N/A     83  74  74 SW6         N/A  HX  89
$$

LMZ740>746-230700-
SOUTHERN LAKE MICHIGAN

STATION/POSITION SKY/WX   TEMP    WIND        PRES    VSBY  WAVE
                          AIR SEA DIR/SP/G                  HT/PER
                          (F)     (DEG/KT/KT) (MB)    (MI)  (FT/S)
SOUTHERN BUOY              74 73  270/  4/  4 1014.8R         0
WILMETTE HARBOR            78 73  200/  2/  2   N/A           0
HARRISON CRIB              83     210/  7/  8   N/A
BURNHAM HARBOR             83     230/  4/  7   N/A
CALUMET HARBOR             81     200/  5/  7 1015.0
BURNS HARBOR               80     210/  9/ 12 1016.3R
MICHIGAN CITY              78     170/  9/ 11   N/A
MICHIGAN CITY 6N           78 75  210/  6/  8   N/A           0
ST. JOSEPH                 75 75  180/  4/  6 1015.3F         0
$$

ILZ025>027-034>036-040-047-049-050-058-095>099-230700-
WEST-CENTRAL ILLINOIS

CITY           SKY/WX    TMP DP  RH WIND       PRES   REMARKS
QUINCY         CLEAR     77  75  93 S3        30.00S
GALESBURG*     CLOUDY    76  75  95 CALM      30.01R
MACOMB*        PTCLDY    76  75  95 CALM      30.02S
JACKSONVILLE*  PTCLDY    77  75  94 CALM      30.01S
PITTSFIELD*    PTCLDY    76  76  99 S3        30.02R
$$

ILZ028>032-037-038-041>044-048-051>054-059>061-230700-
CENTRAL ILLINOIS

CITY           SKY/WX    TMP DP  RH WIND       PRES   REMARKS
PONTIAC        CLOUDY    77  77  99 CALM      30.02S
BLOOMINGTON    PTCLDY    76  72  87 SW5       30.03S
DECATUR        PTCLDY    77  73  87 CALM      30.02F
PEORIA         CLOUDY    78  76  93 SW5       30.01S HX  81
6HR MIN TEMP:  78; 6HR MAX TEMP:  86;

LACON*         PTCLDY    77  74  92 CALM      30.00S
LINCOLN*       PTCLDY    75  74  95 CALM      30.01S
SPRINGFIELD    PTCLDY    78  75  90 SW6       30.00F HX  81
6HR MIN TEMP:  77; 6HR MAX TEMP:  88; 6HR PCP: TRACE;

TAYLORVILLE    CLEAR     72  72  98 N3        30.00F
6HR MIN TEMP:  72; 6HR MAX TEMP:  83;

$$

ILZ033-039-045-046-055>057-062-063-230700-
EAST-CENTRAL ILLINOIS

CITY           SKY/WX    TMP DP  RH WIND       PRES   REMARKS
CHAMPAIGN      PTCLDY    74  72  93 CALM      30.02F
MATTOON        PTCLDY    74  72  93 CALM      30.01F
PARIS*         CLEAR     71  71 100 CALM      30.02F
$$

ILZ079-100>102-230700-
SOUTHWEST ILLINOIS

CITY           SKY/WX    TMP DP  RH WIND       PRES   REMARKS
ALTON          PTCLDY    72  72  98 CALM      30.01S
BELLEVILLE     PTCLDY    75  75 100 CALM      29.99F
CAHOKIA*       PTCLDY    75  72  90 CALM      30.00F
SPARTA*        PTCLDY    75  74  96 CALM      30.02S
$$

ILZ064>066-069>071-074>076-080>082-084>086-088>090-092>094-230700-
SOUTH-CENTRAL ILLINOIS

CITY           SKY/WX    TMP DP  RH WIND       PRES   REMARKS
CARBONDALE     PTCLDY    74  73  97 CALM      30.00F
6HR MIN TEMP:  74; 6HR MAX TEMP:  83;

CAIRO*         CLOUDY    76  76 100 CALM      30.00S FOG
EFFINGHAM*     PTCLDY    73  73 100 CALM      30.03F
MARION         MOCLDY    75  73  94 CALM      30.01F FOG
MT. VERNON     PTCLDY    72  68  88 CALM      30.02S
CENTRALIA*     CLEAR     73  73 100 CALM      30.01S
SALEM*         PTCLDY    74  73  94 CALM      30.01F
METROPOLIS*      N/A     75  75  98 CALM      30.01S FOG
$$

ILZ067-068-072-073-078-083-087-091-230700-
SOUTHEAST ILLINOIS

CITY           SKY/WX    TMP DP  RH WIND       PRES   REMARKS
LAWRENCEVILLE  CLOUDY    75  74  96 CALM      30.02S FOG
FLORA*         CLEAR     74  73  96 CALM      30.02S
FAIRFIELD*     CLEAR     74  74 100 CALM      30.00F FOG
HARRISBURG*    FOG       76  76 100 CALM      30.01R VSB 1/4
ROBINSON*      FOG       71  71 100 CALM      30.02S VSB 1/4
CARMI*         PTCLDY    74  74 100 CALM      30.00S FOG
$$

ABBREVIATIONS USED IN REMARKS
   TC - TEMPERATURE IN CELSIUS
  WCI - WIND CHILL INDEX
   HX - HEAT INDEX
  VSB - VISIBILITY
$$





USA.gov is the U.S. government's official web portal to all federal, state and local government web resources and services.